When you browse on this site, cookies collect data to enhance your experience and personalize the content and advertising you see.
Visit our Privacy Policy to learn more. By continuing to use the site, you agree to this use of cookies and data.
  • In Slovakia
  • List of Countries
  • For 7 days
  • Water Temperature
  • Satellite Maps
  • Weather Map
  • Weather Widgets
  • user-avatar
    Login

    Hourly Weather Giumri

    Today, 11 December, Tuesday

    Time Temperature Precipitation Wind Pressure Humidity
    00:00 -1°C° 0.1 mm 3 mps 631 mmHg 87%
    01:00 -1°C° 0 mm 3 mps 631 mmHg 87%
    02:00 -1°C° 0 mm 3 mps 631 mmHg 87%
    03:00 -1°C° 0 mm 2 mps 630 mmHg 88%
    04:00 -1°C° 0 mm 3 mps 630 mmHg 88%
    05:00 -1°C° 0 mm 3 mps 630 mmHg 88%
    06:00 -1°C° 0 mm 3 mps 630 mmHg 88%
    07:00 0°C° 0 mm 3 mps 630 mmHg 86%
    08:00 +1°C° 0 mm 3 mps 630 mmHg 85%
    09:00 0°C° 0 mm 4 mps 630 mmHg 83%
    10:00 +1°C° 0.1 mm 4 mps 630 mmHg 81%
    11:00 +3°C° 0.1 mm 4 mps 629 mmHg 78%
    12:00 +3°C° 0.1 mm 5 mps 629 mmHg 76%
    13:00 +3°C° 0.1 mm 5 mps 629 mmHg 76%
    14:00 +3°C° 0.1 mm 5 mps 629 mmHg 75%
    15:00 +3°C° 0.1 mm 5 mps 628 mmHg 75%
    16:00 +3°C° 0.1 mm 4 mps 629 mmHg 77%
    17:00 +1°C° 0.1 mm 4 mps 629 mmHg 79%
    18:00 0°C° 0.1 mm 4 mps 629 mmHg 81%
    19:00 0°C° 0.3 mm 4 mps 629 mmHg 83%
    20:00 0°C° 0.3 mm 4 mps 629 mmHg 84%
    21:00 0°C° 0.3 mm 4 mps 629 mmHg 85%
    22:00 0°C° 0.6 mm 4 mps 629 mmHg 87%
    23:00 0°C° 0.6 mm 4 mps 629 mmHg 88%

    Tomorrow, 12 December, Wednesday

    Time Temperature Precipitation Wind Pressure Humidity
    00:00 0°C° 0.6 mm 4 mps 629 mmHg 89%
    01:00 +1°C° 0.2 mm 3 mps 630 mmHg 90%
    02:00 +1°C° 0.2 mm 3 mps 630 mmHg 91%
    03:00 +2°C° 0.2 mm 2 mps 630 mmHg 92%
    04:00 +1°C° 0.2 mm 2 mps 630 mmHg 93%
    05:00 +1°C° 0.2 mm 2 mps 629 mmHg 93%
    06:00 +1°C° 0.2 mm 2 mps 629 mmHg 94%
    07:00 0°C° 0.8 mm 3 mps 629 mmHg 93%
    08:00 +1°C° 0.8 mm 3 mps 628 mmHg 92%
    09:00 0°C° 0.8 mm 4 mps 628 mmHg 91%
    10:00 0°C° 1.2 mm 4 mps 627 mmHg 91%
    11:00 +1°C° 1.2 mm 5 mps 627 mmHg 91%
    12:00 +1°C° 1.2 mm 5 mps 626 mmHg 91%
    13:00 +1°C° 1.2 mm 5 mps 626 mmHg 91%
    14:00 +1°C° 1.2 mm 5 mps 626 mmHg 91%
    15:00 +1°C° 1.2 mm 4 mps 625 mmHg 92%
    16:00 +1°C° 2 mm 4 mps 625 mmHg 93%
    17:00 +1°C° 2 mm 4 mps 626 mmHg 93%
    18:00 +2°C° 2 mm 3 mps 626 mmHg 94%
    19:00 +1°C° 1.7 mm 4 mps 626 mmHg 94%
    20:00 +1°C° 1.7 mm 4 mps 626 mmHg 95%
    21:00 +1°C° 1.7 mm 4 mps 626 mmHg 95%
    22:00 +1°C° 1.1 mm 4 mps 626 mmHg 95%
    23:00 +1°C° 1.1 mm 4 mps 626 mmHg 95%

    Day after tomorrow, 13 December, Thursday

    Time Temperature Precipitation Wind Pressure Humidity
    00:00 +2°C° 1.1 mm 3 mps 626 mmHg 95%
    01:00 +1°C° 1 mm 3 mps 626 mmHg 95%
    02:00 0°C° 1 mm 4 mps 627 mmHg 95%
    03:00 0°C° 1 mm 4 mps 627 mmHg 95%
    04:00 -1°C° 0.2 mm 4 mps 627 mmHg 94%
    05:00 -2°C° 0.2 mm 4 mps 627 mmHg 93%
    06:00 -2°C° 0.2 mm 4 mps 627 mmHg 92%
    07:00 -1°C° 0.2 mm 3 mps 628 mmHg 92%
    08:00 -1°C° 0.2 mm 3 mps 628 mmHg 91%
    09:00 -1°C° 0.2 mm 2 mps 629 mmHg 91%
    10:00 -1°C° 0.3 mm 2 mps 629 mmHg 91%
    11:00 0°C° 0.3 mm 3 mps 629 mmHg 90%
    12:00 0°C° 0.3 mm 3 mps 630 mmHg 90%
    13:00 0°C° 0.2 mm 3 mps 630 mmHg 89%
    14:00 0°C° 0.2 mm 3 mps 630 mmHg 88%
    15:00 +1°C° 0.2 mm 2 mps 631 mmHg 87%
    16:00 -2°C° 0 mm 2 mps 631 mmHg 87%
    17:00 -3°C° 0 mm 2 mps 631 mmHg 88%
    18:00 -4°C° 0 mm 2 mps 631 mmHg 89%
    19:00 -5°C° 0 mm 2 mps 632 mmHg 88%
    20:00 -5°C° 0 mm 2 mps 632 mmHg 88%
    21:00 -6°C° 0 mm 2 mps 632 mmHg 88%
    22:00 -6°C° 0 mm 2 mps 633 mmHg 88%
    23:00 -7°C° 0 mm 2 mps 633 mmHg 88%

    14 December, Friday

    Time Temperature Precipitation Wind Pressure Humidity
    00:00 -7°C° 0 mm 2 mps 633 mmHg 88%
    01:00 -8°C° 0 mm 2 mps 633 mmHg 87%
    02:00 -8°C° 0 mm 2 mps 633 mmHg 87%
    03:00 -8°C° 0 mm 2 mps 633 mmHg 86%
    04:00 -9°C° 0 mm 2 mps 633 mmHg 85%
    05:00 -9°C° 0 mm 2 mps 633 mmHg 85%
    06:00 -9°C° 0 mm 2 mps 633 mmHg 84%
    07:00 -7°C° 0 mm 1 mps 634 mmHg 84%
    08:00 -6°C° 0 mm 1 mps 634 mmHg 83%
    09:00 -6°C° 0 mm 1 mps 634 mmHg 83%
    10:00 -3°C° 0 mm 1 mps 634 mmHg 83%
    11:00 -4°C° 0 mm 2 mps 634 mmHg 83%
    12:00 -3°C° 0 mm 2 mps 634 mmHg 83%
    13:00 -2°C° 0.2 mm 2 mps 634 mmHg 84%
    14:00 -2°C° 0.2 mm 2 mps 633 mmHg 85%
    15:00 -2°C° 0.2 mm 2 mps 633 mmHg 86%
    16:00 -1°C° 0.4 mm 1 mps 633 mmHg 87%
    17:00 -1°C° 0.4 mm 1 mps 633 mmHg 89%
    18:00 -1°C° 0.4 mm 1 mps 634 mmHg 90%
    19:00 -2°C° 0.3 mm 1 mps 634 mmHg 90%
    20:00 -2°C° 0.3 mm 1 mps 634 mmHg 90%
    21:00 -2°C° 0.3 mm 1 mps 634 mmHg 90%
    22:00 -2°C° 0.3 mm 1 mps 634 mmHg 90%
    23:00 -2°C° 0.3 mm 1 mps 635 mmHg 90%

    15 December, Saturday

    Time Temperature Precipitation Wind Pressure Humidity
    00:00 -2°C° 0.3 mm 1 mps 635 mmHg 90%
    01:00 -2°C° 0.1 mm 1 mps 635 mmHg 90%
    02:00 -2°C° 0.1 mm 1 mps 635 mmHg 89%
    03:00 -3°C° 0.1 mm 1 mps 635 mmHg 89%
    04:00 -3°C° 0.1 mm 1 mps 635 mmHg 89%
    05:00 -3°C° 0.1 mm 1 mps 635 mmHg 89%
    06:00 -3°C° 0.1 mm 1 mps 635 mmHg 89%
    07:00 -3°C° 0.1 mm 1 mps 636 mmHg 88%
    08:00 -3°C° 0.1 mm 1 mps 636 mmHg 88%
    09:00 -2°C° 0.1 mm 1 mps 636 mmHg 88%
    10:00 -1°C° 0 mm 1 mps 636 mmHg 88%
    11:00 0°C° 0 mm 1 mps 636 mmHg 87%
    12:00 +1°C° 0 mm 1 mps 636 mmHg 86%
    13:00 +1°C° 0 mm 1 mps 636 mmHg 86%
    14:00 +1°C° 0 mm 1 mps 636 mmHg 86%
    15:00 0°C° 0 mm 1 mps 636 mmHg 86%
    16:00 -1°C° 0 mm 1 mps 636 mmHg 86%
    17:00 -2°C° 0 mm 1 mps 636 mmHg 86%
    18:00 -3°C° 0 mm 1 mps 636 mmHg 86%
    19:00 -3°C° 0 mm 1 mps 636 mmHg 86%
    20:00 -3°C° 0 mm 1 mps 636 mmHg 85%
    21:00 -4°C° 0 mm 1 mps 636 mmHg 85%
    22:00 -4°C° 0 mm 1 mps 636 mmHg 85%
    23:00 -4°C° 0 mm 1 mps 636 mmHg 85%

    16 December, Sunday

    Time Temperature Precipitation Wind Pressure Humidity
    00:00 -4°C° 0 mm 1 mps 636 mmHg 84%
    01:00 -3°C° 0 mm 1 mps 636 mmHg 84%
    02:00 -3°C° 0 mm 1 mps 636 mmHg 84%
    03:00 -3°C° 0 mm 1 mps 636 mmHg 83%
    04:00 -3°C° 0 mm 1 mps 636 mmHg 83%
    05:00 -3°C° 0 mm 1 mps 636 mmHg 82%
    06:00 -2°C° 0 mm 1 mps 636 mmHg 82%
    07:00 -2°C° 0 mm 1 mps 636 mmHg 82%
    08:00 -1°C° 0 mm 1 mps 636 mmHg 82%
    09:00 -1°C° 0 mm 1 mps 637 mmHg 82%
    10:00 0°C° 0 mm 1 mps 637 mmHg 82%
    11:00 +1°C° 0 mm 1 mps 637 mmHg 82%
    12:00 +3°C° 0 mm 1 mps 637 mmHg 81%
    13:00 +2°C° 0 mm 1 mps 636 mmHg 82%
    14:00 +2°C° 0 mm 1 mps 636 mmHg 82%
    15:00 +2°C° 0 mm 1 mps 636 mmHg 82%
    16:00 +1°C° 0 mm 1 mps 636 mmHg 81%
    17:00 0°C° 0 mm 1 mps 636 mmHg 81%
    18:00 -1°C° 0 mm 1 mps 636 mmHg 80%
    19:00 -1°C° 0 mm 1 mps 636 mmHg 79%
    20:00 -1°C° 0 mm 1 mps 636 mmHg 78%
    21:00 -1°C° 0 mm 1 mps 636 mmHg 77%
    22:00 -2°C° 0 mm 1 mps 636 mmHg 77%
    23:00 -2°C° 0 mm 1 mps 636 mmHg 76%
    Show more